This is the latest recevied weather packets stored in our database for station/object TG9ADI-20. If no packets are shown the sender has not sent any weather packets the latest 10 day(s).
| Time | Temp. | Humidity | Pressure | Rain* | Wind** | Luminosity | Snow |
|---|---|---|---|---|---|---|---|
| 1777829239 | 26.11° C | 66% | 1015 hPa | 0 mm | - | - | - |
| 1777828639 | 26.67° C | 59% | 1015 hPa | 0 mm | - | - | - |
| 1777828038 | 25.56° C | 53% | 1015 hPa | 0 mm | - | - | - |
| 1777827438 | 25.56° C | 53% | 1015 hPa | 0 mm | - | - | - |
| 1777826837 | 25.56° C | 68% | 1015 hPa | 0 mm | - | - | - |
| 1777826236 | 25.56° C | 68% | 1015 hPa | 0 mm | - | - | - |
| 1777825635 | 25.56° C | 68% | 1016 hPa | 0 mm | - | - | - |
| 1777825035 | 25.56° C | 61% | 1016 hPa | 0 mm | - | - | - |
| 1777824434 | 23.89° C | 57% | 1016 hPa | 0 mm | - | - | - |
| 1777823833 | 23.89° C | 57% | 1016 hPa | 0 mm | - | - | - |
| 1777823233 | 23.89° C | 57% | 1016 hPa | 0 mm | - | - | - |
| 1777822632 | 23.33° C | 72% | 1016 hPa | 0 mm | - | - | - |
| 1777822031 | 23.33° C | 71% | 1016 hPa | 0 mm | - | - | - |
| 1777821431 | 23.89° C | 71% | 1016 hPa | 0 mm | - | - | - |
| 1777820830 | 23.89° C | 57% | 1016 hPa | 0 mm | - | - | - |
| 1777820230 | 20.56° C | 73% | 1016 hPa | 0 mm | - | - | - |
| 1777819629 | 20.56° C | 73% | 1016 hPa | 0 mm | - | - | - |
| 1777819028 | 20° C | 73% | 1016 hPa | 0 mm | - | - | - |
| 1777818428 | 20.56° C | 73% | 1016 hPa | 0 mm | - | - | - |
| 1777817827 | 19.44° C | 81% | 1016 hPa | 0 mm | - | - | - |
| 1777817226 | 19.44° C | 81% | 1016 hPa | 0 mm | - | - | - |
| 1777816626 | 19.44° C | 81% | 1016 hPa | 0 mm | - | - | - |
| 1777816025 | 19.44° C | 86% | 1016 hPa | 0 mm | - | - | - |
| 1777815424 | 19.44° C | 86% | 1016 hPa | 0 mm | - | - | - |
| 1777814824 | 19.44° C | 86% | 1015 hPa | 0 mm | - | - | - |
* Rain latest hour (hover to see other rain measurements)
** Current wind speed in m/s (hover to see current wind gust speed)